| time (UTC) | temp F | wind direction | speed MPH | gust MPH | rain 1hr in | rain 24hr in | rain mn in | humidity % | barometer mb |
| 20260902203004 | 53 | 159 | 18.0 | 23.0 | 0.00 | 0.03 | 0.03 | 96 | 1006.5 |
| 20260902201504 | 52 | 155 | 18.0 | 25.0 | 0.00 | 0.03 | 0.03 | 95 | 1006.5 |
| 20260902200004 | 53 | 155 | 18.0 | 26.0 | 0.00 | 0.03 | 0.03 | 95 | 1006.7 |
| 20260902194525 | 53 | 155 | 19.0 | 25.0 | 0.00 | 0.03 | 0.03 | 95 | 1007.0 |
| 20260902193004 | 53 | 156 | 19.0 | 27.0 | 0.00 | 0.03 | 0.03 | 95 | 1007.1 |
| 20260902191504 | 53 | 149 | 17.0 | 24.0 | 0.00 | 0.03 | 0.03 | 94 | 1007.3 |
| 20260902190004 | 53 | 151 | 16.0 | 22.0 | 0.00 | 0.03 | 0.03 | 94 | 1007.5 |
| 20260902184504 | 53 | 155 | 16.0 | 22.0 | 0.00 | 0.03 | 0.03 | 93 | 1007.7 |
| 20260902183025 | 53 | 155 | 16.0 | 21.0 | 0.00 | 0.03 | 0.03 | 93 | 1007.8 |
| 20260902181504 | 53 | 153 | 15.0 | 23.0 | 0.00 | 0.03 | 0.03 | 92 | 1008.0 |
| 20260902180006 | 54 | 151 | 16.0 | 23.0 | 0.00 | 0.03 | 0.03 | 91 | 1008.1 |
| 20260902174503 | 54 | 150 | 15.0 | 25.0 | 0.00 | 0.03 | 0.03 | 91 | 1008.4 |
| 20260902173004 | 54 | 149 | 14.0 | 20.0 | 0.00 | 0.03 | 0.03 | 90 | 1008.6 |
| 20260902171504 | 55 | 147 | 14.0 | 22.0 | 0.00 | 0.03 | 0.03 | 90 | 1008.6 |
| 20260902170025 | 55 | 147 | 15.0 | 20.0 | 0.00 | 0.03 | 0.03 | 89 | 1008.7 |
| 20260902164503 | 55 | 144 | 15.0 | 21.0 | 0.00 | 0.03 | 0.03 | 89 | 1009.0 |
| 20260902163007 | 55 | 145 | 13.0 | 20.0 | 0.00 | 0.03 | 0.03 | 89 | 1009.3 |
| 20260902161504 | 55 | 139 | 15.0 | 21.0 | 0.00 | 0.03 | 0.03 | 88 | 1009.5 |
| 20260902160005 | 56 | 137 | 16.0 | 21.0 | 0.00 | 0.03 | 0.03 | 88 | 1009.7 |
| 20260902154503 | 56 | 141 | 14.0 | 20.0 | 0.00 | 0.03 | 0.03 | 88 | 1009.9 |
| 20260902153003 | 56 | 142 | 12.0 | 19.0 | 0.00 | 0.03 | 0.03 | 90 | 1010.1 |
| 20260902151524 | 56 | 140 | 12.0 | 16.0 | 0.00 | 0.03 | 0.03 | 90 | 1010.4 |
| 20260902150004 | 55 | 143 | 12.0 | 18.0 | 0.00 | 0.03 | 0.03 | 91 | 1010.7 |
| 20260902144503 | 55 | 152 | 13.0 | 18.0 | 0.00 | 0.03 | 0.03 | 91 | 1010.8 |
| 20260902143003 | 55 | 166 | 12.0 | 15.0 | 0.00 | 0.03 | 0.03 | 91 | 1011.1 |
| 20260902141504 | 56 | 162 | 11.0 | 16.0 | 0.00 | 0.03 | 0.03 | 88 | 1011.2 |
| 20260902140004 | 55 | 95 | 6.0 | 13.0 | 0.00 | 0.03 | 0.03 | 87 | 1011.2 |
| 20260902134524 | 55 | 75 | 5.0 | 10.0 | 0.00 | 0.03 | 0.03 | 83 | 1011.4 |
| 20260902133025 | 56 | 67 | 6.0 | 12.0 | 0.00 | 0.03 | 0.03 | 84 | 1011.2 |
| 20260902131503 | 56 | 72 | 5.0 | 10.0 | 0.00 | 0.03 | 0.03 | 81 | 1011.5 |
| 20260902130003 | 56 | 71 | 4.0 | 11.0 | 0.00 | 0.03 | 0.03 | 80 | 1011.6 |
| 20260902124524 | 57 | 61 | 6.0 | 13.0 | 0.00 | 0.03 | 0.03 | 80 | 1011.7 |
| 20260902123004 | 58 | 40 | 6.0 | 11.0 | 0.00 | 0.03 | 0.03 | 79 | 1011.6 |
| 20260902121503 | 58 | 41 | 7.0 | 13.0 | 0.00 | 0.03 | 0.03 | 80 | 1011.6 |
| 20260902120004 | 59 | 33 | 5.0 | 11.0 | 0.00 | 0.04 | 0.03 | 80 | 1011.8 |
| 20260902114503 | 58 | 32 | 6.0 | 11.0 | 0.00 | 0.14 | 0.03 | 81 | 1012.0 |
| 20260902113003 | 57 | 26 | 4.0 | 9.0 | 0.00 | 0.14 | 0.03 | 81 | 1012.3 |
| 20260902111503 | 57 | 9 | 4.0 | 8.0 | 0.00 | 0.14 | 0.03 | 83 | 1012.2 |
| 20260902110005 | 56 | 8 | 5.0 | 9.0 | 0.00 | 0.14 | 0.03 | 83 | 1012.3 |
| 20260902104503 | 57 | 16 | 4.0 | 10.0 | 0.00 | 0.14 | 0.03 | 82 | 1012.3 |
| 20260902103003 | 56 | 14 | 2.0 | 7.0 | 0.00 | 0.14 | 0.03 | 82 | 1012.4 |
| 20260902101503 | 56 | 316 | 1.0 | 7.0 | 0.00 | 0.14 | 0.03 | 82 | 1012.6 |
| 20260902100003 | 55 | 299 | 2.0 | 7.0 | 0.00 | 0.14 | 0.03 | 80 | 1012.7 |
| 20260902094503 | 55 | 251 | 2.0 | 8.0 | 0.00 | 0.14 | 0.03 | 82 | 1012.7 |
| 20260902093003 | 55 | 249 | 2.0 | 7.0 | 0.00 | 0.14 | 0.03 | 85 | 1012.7 |
| 20260902091503 | 54 | 272 | 1.0 | 4.0 | 0.00 | 0.14 | 0.03 | 86 | 1012.6 |
| 20260902090004 | 54 | 294 | 0.0 | 5.0 | 0.00 | 0.14 | 0.03 | 85 | 1012.7 |
| 20260902084503 | 54 | 255 | 2.0 | 8.0 | 0.00 | 0.14 | 0.03 | 89 | 1012.8 |
| 20260902083003 | 54 | 256 | 3.0 | 9.0 | 0.00 | 0.14 | 0.03 | 92 | 1012.8 |
| 20260902081503 | 52 | 252 | 2.0 | 8.0 | 0.00 | 0.14 | 0.03 | 93 | 1012.7 |
| 20260902080003 | 52 | 264 | 1.0 | 7.0 | 0.00 | 0.14 | 0.03 | 94 | 1012.7 |
| 20260902074503 | 52 | 255 | 2.0 | 9.0 | 0.00 | 0.14 | 0.03 | 95 | 1012.5 |
| 20260902073003 | 51 | 248 | 3.0 | 11.0 | 0.00 | 0.14 | 0.03 | 95 | 1012.4 |
| 20260902071503 | 50 | 241 | 5.0 | 9.0 | 0.00 | 0.15 | 0.03 | 97 | 1012.4 |
| 20260902070004 | 49 | 233 | 4.0 | 9.0 | 0.00 | 0.15 | 0.03 | 96 | 1012.3 |
| 20260902064503 | 49 | 233 | 3.0 | 7.0 | 0.00 | 0.15 | 0.03 | 97 | 1012.3 |
| 20260902063003 | 49 | 233 | 4.0 | 9.0 | 0.00 | 0.15 | 0.03 | 97 | 1012.5 |
| 20260902061503 | 49 | 230 | 4.0 | 9.0 | 0.00 | 0.15 | 0.03 | 97 | 1012.3 |
| 20260902060003 | 48 | 235 | 3.0 | 7.0 | 0.00 | 0.15 | 0.03 | 97 | 1012.2 |
| 20260902054503 | 48 | 245 | 3.0 | 7.0 | 0.00 | 0.15 | 0.03 | 97 | 1012.1 |
| 20260902053024 | 48 | 248 | 2.0 | 7.0 | 0.00 | 0.15 | 0.03 | 97 | 1012.2 |
| 20260902051503 | 48 | 280 | 0.0 | 2.0 | 0.01 | 0.15 | 0.03 | 97 | 1012.2 |
| 20260902050005 | 49 | 267 | 0.0 | 2.0 | 0.01 | 0.15 | 0.03 | 97 | 1012.2 |
| 20260902044503 | 49 | 274 | 0.0 | 4.0 | 0.01 | 0.15 | 0.03 | 97 | 1012.3 |
| 20260902043003 | 49 | 281 | 1.0 | 8.0 | 0.01 | 0.15 | 0.03 | 97 | 1012.2 |
| 20260902041503 | 49 | 284 | 1.0 | 9.0 | 0.00 | 0.14 | 0.02 | 97 | 1012.1 |
| 20260902040003 | 49 | 270 | 1.0 | 7.0 | 0.00 | 0.14 | 0.02 | 97 | 1011.8 |
| 20260902034524 | 49 | 264 | 1.0 | 7.0 | 0.00 | 0.14 | 0.02 | 97 | 1011.8 |
| 20260902033003 | 49 | 269 | 1.0 | 8.0 | 0.00 | 0.14 | 0.02 | 97 | 1011.7 |
| 20260902031503 | 49 | 262 | 1.0 | 5.0 | 0.00 | 0.14 | 0.02 | 97 | 1011.7 |
| 20260902030003 | 48 | 264 | 1.0 | 5.0 | 0.00 | 0.14 | 0.02 | 97 | 1011.7 |
| 20260902024503 | 49 | 264 | 1.0 | 4.0 | 0.00 | 0.14 | 0.02 | 97 | 1011.7 |
| 20260902023003 | 49 | 276 | 1.0 | 7.0 | 0.00 | 0.14 | 0.02 | 97 | 1011.7 |
| 20260902021503 | 49 | 280 | 2.0 | 9.0 | 0.00 | 0.14 | 0.02 | 96 | 1011.7 |
| 20260902020024 | 49 | 279 | 2.0 | 9.0 | 0.00 | 0.14 | 0.02 | 96 | 1011.7 |
| 20260902014505 | 49 | 276 | 2.0 | 9.0 | 0.00 | 0.14 | 0.02 | 96 | 1011.6 |
| 20260902013005 | 49 | 271 | 2.0 | 9.0 | 0.00 | 0.14 | 0.02 | 96 | 1011.5 |
| 20260902011505 | 49 | 265 | 2.0 | 11.0 | 0.00 | 0.14 | 0.02 | 96 | 1011.4 |
| 20260902010005 | 49 | 256 | 4.0 | 11.0 | 0.01 | 0.14 | 0.02 | 96 | 1011.2 |
| 20260902004505 | 50 | 259 | 3.0 | 8.0 | 0.01 | 0.14 | 0.02 | 95 | 1011.2 |
| 20260902003005 | 50 | 261 | 4.0 | 11.0 | 0.02 | 0.14 | 0.02 | 95 | 1011.3 |
| 20260902001505 | 50 | 267 | 4.0 | 12.0 | 0.02 | 0.14 | 0.02 | 94 | 1011.2 |
| 20260902000005 | 51 | 277 | 4.0 | 11.0 | 0.01 | 0.13 | 0.01 | 93 | 1011.1 |
| 20260901234505 | 52 | 290 | 7.0 | 20.0 | 0.01 | 0.13 | 0.01 | 89 | 1011.1 |
| 20260901233005 | 52 | 284 | 11.0 | 20.0 | 0.00 | 0.12 | 0.00 | 85 | 1011.0 |
| 20260901231505 | 52 | 272 | 5.0 | 21.0 | 0.00 | 0.12 | 0.00 | 83 | 1010.9 |
| 20260901230027 | 52 | 264 | 5.0 | 16.0 | 0.00 | 0.12 | 0.00 | 83 | 1010.7 |
| 20260901224526 | 52 | 252 | 7.0 | 16.0 | 0.00 | 0.12 | 0.12 | 83 | 1010.6 |
| 20260901223006 | 52 | 244 | 9.0 | 15.0 | 0.00 | 0.12 | 0.12 | 83 | 1010.4 |
| 20260901221505 | 52 | 244 | 11.0 | 19.0 | 0.00 | 0.12 | 0.12 | 82 | 1010.2 |
| 20260901220005 | 52 | 242 | 11.0 | 19.0 | 0.00 | 0.12 | 0.12 | 82 | 1010.0 |
| 20260901214505 | 52 | 237 | 9.0 | 15.0 | 0.00 | 0.12 | 0.12 | 82 | 1010.0 |
| 20260901213005 | 52 | 235 | 9.0 | 18.0 | 0.00 | 0.12 | 0.12 | 82 | 1010.0 |
| 20260901211526 | 52 | 238 | 10.0 | 18.0 | 0.00 | 0.12 | 0.12 | 81 | 1010.0 |
| 20260901210005 | 52 | 236 | 10.0 | 18.0 | 0.00 | 0.12 | 0.12 | 80 | 1009.9 |
| 20260901204505 | 53 | 238 | 10.0 | 20.0 | 0.00 | 0.12 | 0.12 | 80 | 1009.8 |